User: anonymous   Login
Location: Unspecified
(0.0000°N, 0.0000°E)
Time: 17:05:26
(UTC+00:00)
Language:

CUSAT 1 - Orbit

View from above orbital plane
View from above orbital plane
View from above satellite
View from above satellite

Ground track
Ground track

The orbit data is extracted from the following two-line orbital elements,

1 39266U 13055B   17265.17255028  .00004924  00000-0  13944-3 0  9994
2 39266  80.9840 267.5603 0657521 306.0433  48.1509 14.30081064205855
Epoch (UTC): 22 September 2017 04:08:28
Eccentricity: 0.0657521
inclination: 80.9840°
perigee height: 320 km
apogee height: 1263 km
right ascension of ascending node: 267.5603°
argument of perigee: 306.0433°
revolutions per day: 14.30081064
mean anomaly at epoch: 48.1509°
orbit number at epoch: 20585

The dashed part of the orbit path shows where the satellite is in the earth's shadow,  

DLR